Weather History for Ames, IA

Change the Weather History Date:

Saturday, February 2, 2013

  Actual Average Record
Temperature  
Mean Temperature 23 °F 21 °F  
Max Temperature 33 °F 30 °F 55 °F (2006)
Min Temperature 13 °F 12 °F -13 °F (2014)
Degree Days  
Heating Degree Days 42 44  
Month to date heating degree days 99 88  
Since 1 July heating degree days 4001 4243  
Cooling Degree Days 0 0  
Month to date cooling degree days 0 0  
Year to date cooling degree days 0 0  
Moisture  
Dew Point 15 °F    
Average Humidity 77    
Maximum Humidity 92    
Minimum Humidity 62    
Precipitation  
Precipitation 0.04 in 0.03 in 0.43 in (1983)
Month to date precipitation 0.04 0.06  
Sea Level Pressure  
Sea Level Pressure 30.09 in    
Wind  
Wind Speed 12 mph (West)    
Max Wind Speed 24 mph    
Max Gust Speed 32 mph    
Visibility 8 miles    
Events Snow    
T = Trace of Precipitation, MM = Missing Value Source: NWS Daily Summary

Daily Weather History Graph

Daily Weather History Graph

Search for Another Location

Airport:

Trip Planner

Search our weather history database for the weather conditions in past years. The results will help you decide how hot, cold, wet, or windy it might be!

Date:

Astronomy

Feb. 02, 2013 Rise Set
Actual Time 7:25 AM CST 5:31 PM CST
Civil Twilight 6:56 AM CST 6:00 PM CST
Nautical Twilight 6:23 AM CST 6:33 PM CST
Astronomical Twilight 5:50 AM CST 7:06 PM CST
Moon No Moon Rise 10:29 AM CST (2/2)
Length of Visible Light 11h 04m
Length of Day
10h 05m
Waning Gibbous, 59% of the Moon is Illuminated
Feb 2
Waning Gibbous
Feb 3
Last Quarter
Feb 10
New
Feb 17
First Quarter
Feb 25
Full

Hourly Weather History & Observations

Time (CST) Temp. Windchill Dew Point Humidity Pressure Visibility Wind Dir Wind Speed Gust Speed Precip Events Conditions
12:14 AM 21.2 °F 11.7 °F 15.8 °F 80% 30.00 in 10.0 mi WSW 8.1 mph - N/A   Mostly Cloudy
12:53 AM 24.1 °F 13.1 °F 17.1 °F 75% 30.04 in 10.0 mi WSW 11.5 mph - N/A   Overcast
1:53 AM 25.0 °F 13.6 °F 18.0 °F 75% 30.04 in 10.0 mi West 12.7 mph - N/A   Scattered Clouds
2:53 AM 25.0 °F 12.2 °F 18.0 °F 75% 30.06 in 10.0 mi NW 16.1 mph - N/A   Mostly Cloudy
3:53 AM 19.9 °F 6.2 °F 14.0 °F 78% 30.08 in 10.0 mi NNW 15.0 mph - N/A   Clear
4:39 AM 19.4 °F 5.0 °F 12.2 °F 74% 30.06 in 10.0 mi NNW 16.1 mph - N/A   Mostly Cloudy
4:53 AM 19.0 °F 4.0 °F 12.9 °F 77% 30.11 in 10.0 mi NNW 17.3 mph 21.9 mph N/A   Overcast
6:53 AM 16.0 °F -0.4 °F 10.0 °F 77% 30.17 in 10.0 mi NNW 18.4 mph - N/A   Overcast
7:53 AM 14.0 °F -0.8 °F 8.1 °F 77% 30.20 in 7.0 mi NW 13.8 mph - N/A   Overcast
8:20 AM 12.2 °F -2.5 °F 6.8 °F 79% 30.16 in 10.0 mi NNW 12.7 mph - N/A   Scattered Clouds
8:53 AM 12.9 °F -3.4 °F 6.1 °F 74% 30.21 in 10.0 mi North 16.1 mph - N/A   Clear
9:53 AM 14.0 °F -1.4 °F 5.0 °F 67% 30.22 in 10.0 mi NNW 15.0 mph - N/A   Clear
10:53 AM 14.0 °F -0.8 °F 6.1 °F 71% 30.22 in 10.0 mi NW 13.8 mph - N/A   Scattered Clouds
11:53 AM 16.0 °F 2.9 °F 7.0 °F 68% 30.21 in 10.0 mi NW 11.5 mph - N/A   Scattered Clouds
12:53 PM 18.0 °F 6.1 °F 8.1 °F 65% 30.19 in 10.0 mi NNW 10.4 mph - N/A   Overcast
1:53 PM 18.0 °F 8.7 °F 8.1 °F 65% 30.17 in 10.0 mi WNW 6.9 mph - N/A   Overcast
2:53 PM 19.0 °F 9.0 °F 8.1 °F 62% 30.17 in 10.0 mi WNW 8.1 mph - N/A   Overcast
3:53 PM 19.0 °F 13.9 °F 10.0 °F 68% 30.15 in 8.0 mi West 3.5 mph - N/A   Overcast
4:53 PM 19.9 °F 12.1 °F 12.9 °F 74% 30.13 in 10.0 mi SW 5.8 mph - 0.00 in   Overcast
5:48 PM 19.4 °F 9.5 °F 14.0 °F 80% 30.07 in 2.5 mi SSW 8.1 mph - 0.00 in Snow Light Snow
5:53 PM 19.0 °F 10.0 °F 14.0 °F 81% 30.11 in 1.2 mi SW 6.9 mph - 0.00 in Snow Light Snow
6:04 PM 19.4 °F 10.4 °F 15.8 °F 86% 30.07 in 0.8 mi SSW 6.9 mph - 0.00 in Snow Light Snow
6:39 PM 19.4 °F 10.4 °F 17.6 °F 93% 30.06 in 1.8 mi South 6.9 mph - 0.03 in Snow Light Snow
6:44 PM 19.4 °F 12.8 °F 17.6 °F 93% 30.06 in 2.5 mi South 4.6 mph - 0.03 in Snow Light Snow
6:53 PM 19.0 °F 10.0 °F 17.1 °F 92% 30.09 in 5.0 mi South 6.9 mph - 0.03 in Snow Light Snow
7:53 PM 19.9 °F 9.3 °F 17.1 °F 89% 30.08 in 5.0 mi South 9.2 mph - 0.01 in Snow Light Snow
8:48 PM 19.4 °F 10.4 °F 17.6 °F 93% 30.00 in 10.0 mi South 6.9 mph - 0.00 in   Overcast
8:53 PM 19.9 °F 9.3 °F 18.0 °F 92% 30.04 in 10.0 mi South 9.2 mph - 0.00 in   Overcast
9:19 PM 21.2 °F 11.7 °F 17.6 °F 86% 29.99 in 4.0 mi SSW 8.1 mph - 0.00 in Snow Light Snow
9:36 PM 21.2 °F 11.7 °F 19.4 °F 93% 29.99 in 2.0 mi SSW 8.1 mph - 0.00 in Snow Light Snow
9:53 PM 21.9 °F 11.7 °F 19.9 °F 92% 30.02 in 7.0 mi SW 9.2 mph - 0.00 in   Overcast
10:21 PM 23.0 °F 13.1 °F 21.2 °F 93% 29.97 in 10.0 mi SW 9.2 mph - N/A   Overcast
10:53 PM 26.1 °F 15.6 °F 23.0 °F 88% 30.00 in 10.0 mi West 11.5 mph - N/A   Overcast
11:40 PM 33.8 °F 21.3 °F 26.6 °F 75% 29.96 in 9.0 mi NW 24.2 mph 31.1 mph N/A   Overcast
11:53 PM 33.1 °F 21.9 °F 27.0 °F 78% 29.99 in 9.0 mi NW 18.4 mph 31.1 mph N/A   Overcast